Simultaneous Nadir Overpasses (SNOs) Predictions

Prediction of SNOs between NOAA-20 and METOP-B Satellite Orbit:

Table of predicted SNOs for the next 14.0 days since TLE Epoch: 9/3/2022
Index Date (NOAA-20) Time (NOAA-20) Lat,Lon (NOAA-20) SZA (NOAA-20 ) Date (METOP-B) Time (METOP-B) Lat,Lon (METOP-B) SZA (METOP-B ) Distance(km) Time Diff (sec)
1 09/09/2022 00:12:46 -73.57, -13.11 111.69 09/09/2022 00:13:52 -73.54, -10.04 111.86 96.63 66
2 09/09/2022 01:03:28 73.36, 154.66 68.10 09/09/2022 01:04:36 73.33, 156.83 67.97 69.04 68
3 09/09/2022 01:54:10 -73.27, -37.81 111.99 09/09/2022 01:55:20 -73.22, -36.11 112.13 55.08 70
4 09/09/2022 02:44:52 73.07, 129.95 67.80 09/09/2022 02:46:04 73.01, 130.78 67.70 27.68 72
5 09/09/2022 03:35:34 -72.97, -62.54 112.29 09/09/2022 03:36:47 -72.94, -62.04 112.35 16.73 73
6 09/09/2022 04:26:17 72.82, 105.10 67.56 09/09/2022 04:27:29 72.83, 105.06 67.56 2.14 72
7 09/09/2022 05:17:01 -72.83, -87.60 112.42 09/09/2022 05:18:11 -72.82, -87.64 112.44 1.59 70
8 09/09/2022 06:07:47 72.82, 79.72 67.59 09/09/2022 06:08:51 72.81, 79.67 67.57 1.93 64
9 09/09/2022 06:58:31 -72.83,-112.98 112.39 09/09/2022 06:59:32 -72.84,-112.92 112.39 2.56 61
10 09/09/2022 07:49:17 72.82, 54.34 67.62 09/09/2022 07:50:12 72.84, 54.39 67.62 2.23 55
11 09/09/2022 08:40:01 -72.83,-138.37 112.36 09/09/2022 08:40:54 -72.82,-138.31 112.39 2.17 53
12 09/09/2022 09:30:47 72.83, 28.96 67.65 09/09/2022 09:31:34 72.81, 29.00 67.62 2.24 47
13 09/09/2022 10:21:30 -72.79,-163.64 112.39 09/09/2022 10:22:16 -72.80,-163.70 112.38 2.38 46
14 09/09/2022 11:12:16 72.78, 3.68 67.62 09/09/2022 11:12:56 72.79, 3.61 67.63 2.43 40
15 09/09/2022 12:03:00 -72.79, 170.98 112.36 09/09/2022 12:03:38 -72.77, 170.91 112.38 2.84 38
16 09/09/2022 12:53:46 72.78, -21.70 67.65 09/09/2022 12:54:18 72.76, -21.78 67.63 3.25 32
17 09/09/2022 13:44:30 -72.79, 145.60 112.33 09/09/2022 13:44:59 -72.80, 145.62 112.33 1.31 29
18 09/09/2022 14:35:16 72.79, -47.08 67.68 09/09/2022 14:35:39 72.79, -47.06 67.68 0.90 23
19 09/09/2022 15:26:00 -72.79, 120.21 112.30 09/09/2022 15:26:21 -72.78, 120.24 112.32 2.21 21
20 09/09/2022 16:16:46 72.79, -72.46 67.71 09/09/2022 16:17:01 72.77, -72.45 67.69 2.53 15
21 09/09/2022 17:07:29 -72.75, 94.94 112.32 09/09/2022 17:07:43 -72.75, 94.85 112.32 3.05 14
22 09/09/2022 17:58:15 72.74, -97.74 67.69 09/09/2022 17:58:23 72.74, -97.84 67.69 3.26 8
23 09/09/2022 18:48:58 -72.75, 69.56 112.29 09/09/2022 18:49:03 -72.78, 69.56 112.27 3.16 5
24 09/09/2022 19:39:44 72.74,-123.12 67.72 09/09/2022 19:39:43 72.77,-123.12 67.74 2.75 1
25 09/09/2022 20:30:28 -72.75, 44.18 112.26 09/09/2022 20:30:25 -72.76, 44.17 112.26 0.15 3
26 09/09/2022 21:21:14 72.75,-148.50 67.75 09/09/2022 21:21:05 72.75,-148.51 67.75 0.41 9
27 09/09/2022 22:11:58 -72.76, 18.79 112.23 09/09/2022 22:11:47 -72.73, 18.79 112.26 2.87 11
28 09/09/2022 23:02:44 72.75,-173.89 67.78 09/09/2022 23:02:27 72.72,-173.90 67.75 3.37 17
29 09/09/2022 23:53:28 -72.76, -6.59 112.20 09/09/2022 23:53:08 -72.76, -6.50 112.21 2.94 20
30 09/10/2022 00:44:14 72.75, 160.73 67.81 09/10/2022 00:43:48 72.75, 160.81 67.80 2.76 26
31 09/10/2022 01:34:57 -72.71, -31.86 112.23 09/10/2022 01:34:30 -72.73, -31.89 112.20 2.51 27
32 09/10/2022 02:25:43 72.71, 135.46 67.78 09/10/2022 02:25:10 72.72, 135.42 67.81 2.17 33
33 09/10/2022 03:16:27 -72.72, -57.25 112.20 09/10/2022 03:15:52 -72.71, -57.28 112.20 1.18 35
34 09/10/2022 04:07:13 72.71, 110.07 67.81 09/10/2022 04:06:32 72.70, 110.04 67.81 1.71 41
35 09/10/2022 04:57:57 -72.72, -82.63 112.17 09/10/2022 04:57:13 -72.74, -82.56 112.15 2.98 44
36 09/10/2022 05:48:43 72.71, 84.69 67.84 09/10/2022 05:47:53 72.73, 84.75 67.86 2.44 50
37 09/10/2022 06:39:27 -72.72,-108.01 112.14 09/10/2022 06:38:35 -72.71,-107.95 112.14 2.20 52
38 09/10/2022 07:30:13 72.72, 59.31 67.87 09/10/2022 07:29:15 72.70, 59.36 67.87 2.28 58
39 09/10/2022 08:20:56 -72.68,-133.29 112.16 09/10/2022 08:19:57 -72.69,-133.34 112.14 2.36 59
40 09/10/2022 09:11:42 72.67, 34.03 67.85 09/10/2022 09:10:37 72.68, 33.97 67.87 2.28 65
41 09/10/2022 10:02:26 -72.68,-158.67 112.13 09/10/2022 10:01:19 -72.67,-158.73 112.13 2.40 67
42 09/10/2022 10:53:12 72.67, 8.65 67.88 09/10/2022 10:51:59 72.66, 8.58 67.88 3.01 73
43 09/10/2022 11:43:55 -72.63, 176.06 112.16 09/10/2022 11:42:41 -72.64, 175.89 112.13 5.77 74
44 09/10/2022 12:34:37 72.42, -16.21 67.64 09/10/2022 12:33:25 72.43, -17.21 67.70 33.61 72
45 09/10/2022 13:25:20 -72.38, 151.18 112.40 09/10/2022 13:24:08 -72.36, 149.99 112.35 40.32 72
46 09/10/2022 14:16:01 72.12, -40.99 67.34 09/10/2022 14:14:53 72.09, -43.20 67.42 75.38 68
47 09/10/2022 15:06:43 -72.03, 126.50 112.75 09/10/2022 15:05:36 -72.03, 124.01 112.62 85.28 67



Historial Predications of SNOs between NOAA-20 and METOP-B
